Location: Northcutt
(34.7304°N, 84.4305°W)
Time: 10:03:31
(UTC+00:00)

A-11 Canister half - Pass Details

Date: 06 October 2022
Orbit: 1524 x 1685 km, 47.3° (Epoch: 30 November)

Event Time Altitude Azimuth Distance (km) Brightness Sun altitude
Rises 04:48:47 0° 292° (WNW) 4,768 11.9 -59.2°
Enters shadow 04:51:14 - 284° (WNW) 4,181 11.4 -59.3°
Reaches altitude 10° 04:53:01 10° 276° (W) 3,809 - -59.4°
Maximum altitude 04:59:12 19° 235° (SW) 3,176 - -59.7°
Drops below altitude 10° 05:05:30 10° 195° (SSW) 3,880 - -60.0°
Sets 05:09:56 0° 178° (S) 4,887 - -60.2°
